Orbital Elements
Epoch 2000 Dec. 2.0 TT = JDT 2451880.5
T 2000 Nov. 21.07404 TT Muraoka
q 2.4126313 (2000.0) P Q
n 0.12005656 Peri. 162.36363 +0.97959046 -0.06885693
a 4.0695413 Node 204.12073 +0.07663459 +0.99647288
e 0.4071491 Incl. 27.52266 +0.18582162 -0.04796374
P 8.21
>From 69 observations 1950-1993, mean residual 0".86.
|